| time (UTC) | temp C | wind direction | speed KPH | gust KPH | rain 1hr cm | rain 24hr cm | rain mn cm | humidity % | barometer mb |
| 20260831063114 | 15 | 0 | 0.0 | 3.2 | 0.00 | 0.00 | 0.00 | 63 | 1023.0 |
| 20260831061611 | 15 | 49 | 0.0 | 3.2 | 0.00 | 0.00 | 0.00 | 62 | 1022.8 |
| 20260831060113 | 15 | 53 | 0.0 | 3.2 | 0.00 | 0.00 | 0.00 | 63 | 1022.8 |
| 20260831054605 | 15 | 0 | 0.0 | 4.8 | 0.00 | 0.00 | 0.00 | 63 | 1022.7 |
| 20260831053109 | 14 | 68 | 3.2 | 6.4 | 0.00 | 0.00 | 0.00 | 64 | 1022.6 |
| 20260831051622 | 15 | 68 | 4.8 | 8.0 | 0.00 | 0.00 | 0.00 | 62 | 1022.6 |
| 20260831050119 | 15 | 70 | 3.2 | 11.3 | 0.00 | 0.00 | 0.00 | 61 | 1022.4 |
| 20260831044605 | 14 | 60 | 6.4 | 9.7 | 0.00 | 0.00 | 0.00 | 60 | 1022.3 |
| 20260831043108 | 14 | 63 | 3.2 | 6.4 | 0.00 | 0.00 | 0.00 | 60 | 1022.2 |
| 20260831041613 | 15 | 65 | 3.2 | 8.0 | 0.00 | 0.00 | 0.00 | 60 | 1022.4 |
| 20260831034603 | 14 | 113 | 0.0 | 3.2 | 0.00 | 0.00 | 0.00 | 62 | 1022.3 |
| 20260831033109 | 15 | 97 | 1.6 | 4.8 | 0.00 | 0.00 | 0.00 | 58 | 1022.3 |
| 20260831031608 | 15 | 74 | 0.0 | 6.4 | 0.00 | 0.00 | 0.00 | 59 | 1022.1 |
| 20260831030105 | 15 | 56 | 0.0 | 6.4 | 0.00 | 0.00 | 0.00 | 59 | 1022.2 |
| 20260831024619 | 16 | 89 | 1.6 | 4.8 | 0.00 | 0.00 | 0.00 | 59 | 1022.2 |
| 20260831023107 | 16 | 0 | 0.0 | 4.8 | 0.00 | 0.00 | 0.00 | 59 | 1022.1 |
| 20260831021605 | 16 | 0 | 1.6 | 4.8 | 0.00 | 0.00 | 0.00 | 58 | 1022.1 |
| 20260831020109 | 16 | 0 | 0.0 | 1.6 | 0.00 | 0.00 | 0.00 | 57 | 1022.0 |
| 20260831014610 | 17 | 108 | 0.0 | 8.0 | 0.00 | 0.00 | 0.00 | 57 | 1022.0 |
| 20260831013104 | 17 | 113 | 0.0 | 4.8 | 0.00 | 0.00 | 0.00 | 57 | 1022.0 |
| 20260831011604 | 18 | 46 | 3.2 | 6.4 | 0.00 | 0.00 | 0.00 | 55 | 1022.0 |
| 20260831010134 | 18 | 0 | 0.0 | 6.4 | 0.00 | 0.00 | 0.00 | 55 | 1022.1 |
| 20260831004602 | 18 | 57 | 1.6 | 6.4 | 0.00 | 0.00 | 0.00 | 56 | 1022.0 |
| 20260831003111 | 18 | 41 | 3.2 | 8.0 | 0.00 | 0.00 | 0.00 | 56 | 1022.0 |
| 20260831001609 | 18 | 0 | 0.0 | 8.0 | 0.00 | 0.00 | 0.00 | 56 | 1022.1 |
| 20260831000109 | 18 | 51 | 1.6 | 6.4 | 0.00 | 0.00 | 0.00 | 56 | 1022.1 |
| 20260830234611 | 18 | 64 | 1.6 | 4.8 | 0.00 | 0.00 | 0.00 | 56 | 1022.2 |
| 20260830233105 | 19 | 43 | 4.8 | 8.0 | 0.00 | 0.00 | 0.00 | 55 | 1022.1 |
| 20260830231603 | 20 | 53 | 0.0 | 3.2 | 0.00 | 0.00 | 0.00 | 54 | 1022.1 |
| 20260830230109 | 20 | 63 | 0.0 | 6.4 | 0.00 | 0.00 | 0.00 | 53 | 1022.0 |
| 20260830224610 | 20 | 52 | 1.6 | 6.4 | 0.00 | 0.00 | 0.00 | 54 | 1021.9 |
| 20260830223103 | 20 | 52 | 1.6 | 6.4 | 0.00 | 0.00 | 0.00 | 54 | 1022.0 |
| 20260830221605 | 20 | 67 | 3.2 | 6.4 | 0.00 | 0.00 | 0.00 | 54 | 1021.9 |
| 20260830220131 | 21 | 42 | 3.2 | 4.8 | 0.00 | 0.00 | 0.00 | 53 | 1021.9 |
| 20260830214605 | 21 | 53 | 3.2 | 8.0 | 0.00 | 0.00 | 0.00 | 52 | 1022.0 |
| 20260830213112 | 21 | 350 | 3.2 | 6.4 | 0.00 | 0.00 | 0.00 | 51 | 1021.9 |
| 20260830211626 | 21 | 63 | 1.6 | 6.4 | 0.00 | 0.00 | 0.00 | 50 | 1021.8 |
| 20260830210106 | 21 | 0 | 0.0 | 3.2 | 0.00 | 0.00 | 0.00 | 49 | 1021.7 |
| 20260830204604 | 22 | 37 | 0.0 | 3.2 | 0.00 | 0.00 | 0.00 | 48 | 1021.7 |
| 20260830203123 | 22 | 0 | 0.0 | 3.2 | 0.00 | 0.00 | 0.00 | 47 | 1021.6 |
| 20260830201602 | 23 | 0 | 1.6 | 6.4 | 0.00 | 0.00 | 0.00 | 47 | 1021.5 |
| 20260830200105 | 23 | 129 | 0.0 | 9.7 | 0.00 | 0.00 | 0.00 | 44 | 1021.4 |
| 20260830194607 | 23 | 16 | 3.2 | 6.4 | 0.00 | 0.00 | 0.00 | 43 | 1021.2 |
| 20260830193106 | 23 | 34 | 4.8 | 11.3 | 0.00 | 0.00 | 0.00 | 39 | 1021.0 |
| 20260830191602 | 25 | 0 | 0.0 | 6.4 | 0.00 | 0.00 | 0.00 | 34 | 1020.6 |
| 20260830190107 | 25 | 213 | 3.2 | 11.3 | 0.00 | 0.00 | 0.00 | 33 | 1020.3 |
| 20260830184605 | 26 | 226 | 3.2 | 14.5 | 0.00 | 0.00 | 0.00 | 32 | 1020.2 |
| 20260830183123 | 26 | 244 | 6.4 | 14.5 | 0.00 | 0.00 | 0.00 | 31 | 1020.1 |
| 20260830181625 | 27 | 263 | 12.9 | 24.1 | 0.00 | 0.00 | 0.00 | 30 | 1020.0 |
| 20260830180112 | 28 | 256 | 9.7 | 22.5 | 0.00 | 0.00 | 0.00 | 29 | 1020.0 |
| 20260830174602 | 28 | 229 | 9.7 | 24.1 | 0.00 | 0.00 | 0.00 | 29 | 1020.0 |
| 20260830173143 | 28 | 214 | 11.3 | 22.5 | 0.00 | 0.00 | 0.00 | 29 | 1019.9 |
| 20260830171606 | 28 | 212 | 11.3 | 22.5 | 0.00 | 0.00 | 0.00 | 29 | 1019.8 |
| 20260830170109 | 28 | 274 | 9.7 | 22.5 | 0.00 | 0.00 | 0.00 | 29 | 1019.8 |
| 20260830164609 | 28 | 213 | 9.7 | 22.5 | 0.00 | 0.00 | 0.00 | 29 | 1019.9 |
| 20260830163106 | 28 | 93 | 12.9 | 33.8 | 0.00 | 0.00 | 0.00 | 29 | 1019.8 |
| 20260830161633 | 28 | 260 | 8.0 | 30.6 | 0.00 | 0.00 | 0.00 | 28 | 1019.8 |
| 20260830160104 | 28 | 231 | 12.9 | 22.5 | 0.00 | 0.00 | 0.00 | 28 | 1019.9 |
| 20260830154609 | 28 | 210 | 12.9 | 30.6 | 0.00 | 0.00 | 0.00 | 28 | 1020.0 |
| 20260830153107 | 28 | 205 | 8.0 | 30.6 | 0.00 | 0.00 | 0.00 | 29 | 1019.8 |
| 20260830151610 | 28 | 245 | 17.7 | 30.6 | 0.00 | 0.00 | 0.00 | 27 | 1019.8 |
| 20260830150106 | 28 | 255 | 14.5 | 30.6 | 0.00 | 0.00 | 0.00 | 29 | 1019.9 |
| 20260830144607 | 28 | 268 | 12.9 | 33.8 | 0.00 | 0.00 | 0.00 | 28 | 1020.1 |
| 20260830143106 | 27 | 214 | 19.3 | 32.2 | 0.00 | 0.00 | 0.00 | 28 | 1020.2 |
| 20260830141606 | 28 | 224 | 12.9 | 32.2 | 0.00 | 0.00 | 0.00 | 27 | 1020.3 |
| 20260830140111 | 27 | 238 | 17.7 | 30.6 | 0.00 | 0.00 | 0.00 | 28 | 1020.4 |
| 20260830134608 | 27 | 220 | 12.9 | 25.7 | 0.00 | 0.00 | 0.00 | 28 | 1020.6 |
| 20260830133108 | 27 | 314 | 17.7 | 29.0 | 0.00 | 0.00 | 0.00 | 28 | 1020.6 |
| 20260830131617 | 27 | 274 | 14.5 | 29.0 | 0.00 | 0.00 | 0.00 | 29 | 1020.8 |
| 20260830130113 | 26 | 274 | 22.5 | 37.0 | 0.00 | 0.00 | 0.00 | 29 | 1020.9 |
| 20260830124606 | 26 | 300 | 20.9 | 30.6 | 0.00 | 0.00 | 0.00 | 29 | 1021.0 |
| 20260830123106 | 27 | 273 | 11.3 | 32.2 | 0.00 | 0.00 | 0.00 | 30 | 1021.1 |
| 20260830121604 | 26 | 214 | 17.7 | 32.2 | 0.00 | 0.00 | 0.00 | 30 | 1021.1 |
| 20260830120106 | 26 | 271 | 17.7 | 33.8 | 0.00 | 0.00 | 0.00 | 30 | 1020.9 |
| 20260830114606 | 26 | 238 | 16.1 | 25.7 | 0.00 | 0.00 | 0.00 | 29 | 1021.1 |
| 20260830113106 | 26 | 297 | 14.5 | 30.6 | 0.00 | 0.00 | 0.00 | 31 | 1021.2 |
| 20260830111604 | 26 | 265 | 9.7 | 35.4 | 0.00 | 0.00 | 0.00 | 31 | 1021.4 |
| 20260830110142 | 25 | 254 | 14.5 | 32.2 | 0.00 | 0.00 | 0.00 | 33 | 1021.3 |
| 20260830104603 | 25 | 259 | 19.3 | 33.8 | 0.00 | 0.00 | 0.00 | 33 | 1021.4 |
| 20260830103107 | 25 | 240 | 12.9 | 24.1 | 0.00 | 0.00 | 0.00 | 34 | 1021.6 |
| 20260830101605 | 24 | 233 | 11.3 | 19.3 | 0.00 | 0.00 | 0.00 | 35 | 1021.7 |
| 20260830100105 | 23 | 217 | 9.7 | 22.5 | 0.00 | 0.00 | 0.00 | 36 | 1021.6 |
| 20260830094612 | 23 | 266 | 8.0 | 17.7 | 0.00 | 0.00 | 0.00 | 36 | 1021.8 |
| 20260830093139 | 23 | 220 | 12.9 | 24.1 | 0.00 | 0.00 | 0.00 | 37 | 1021.7 |
| 20260830091602 | 22 | 259 | 9.7 | 17.7 | 0.00 | 0.00 | 0.00 | 38 | 1021.7 |
| 20260830090107 | 22 | 209 | 9.7 | 17.7 | 0.00 | 0.00 | 0.00 | 37 | 1021.7 |
| 20260830084606 | 20 | 0 | 3.2 | 8.0 | 0.00 | 0.00 | 0.00 | 40 | 1021.7 |
| 20260830083107 | 20 | 0 | 0.0 | 0.0 | 0.00 | 0.00 | 0.00 | 43 | 1021.7 |
| 20260830081609 | 18 | 0 | 0.0 | 0.0 | 0.00 | 0.00 | 0.00 | 45 | 1021.8 |
| 20260830080106 | 17 | 0 | 0.0 | 0.0 | 0.00 | 0.00 | 0.00 | 47 | 1021.8 |
| 20260830074658 | 16 | 0 | 0.0 | 0.0 | 0.00 | 0.00 | 0.00 | 51 | 1021.8 |
| 20260830073116 | 14 | 0 | 0.0 | 4.8 | 0.00 | 0.00 | 0.00 | 55 | 1021.8 |
| 20260830071624 | 13 | 0 | 1.6 | 3.2 | 0.00 | 0.00 | 0.00 | 56 | 1021.7 |
| 20260830070109 | 13 | 0 | 0.0 | 1.6 | 0.00 | 0.00 | 0.00 | 56 | 1021.7 |
| 20260830064603 | 12 | 0 | 0.0 | 0.0 | 0.00 | 0.00 | 0.00 | 58 | 1021.9 |